DB0TGO-14 Weather Reports


Display with metric or nautical units.
time (UTC)temp
F
wind
direction
speed
MPH
gust
MPH
rain 1hr
in
rain 24hr
in
rain mn
in
humidity
%
barometer
mb
20260902113140 69 270 5.0 9.0 0.00 0.00 0.00 59 1020.8
20260902112944 69 270 5.0 9.0 0.00 0.00 0.00 60 1020.8
20260902112745 69 248 5.0 9.0 0.00 0.00 0.00 60 1020.8
20260902112652 69 270 5.0 7.0 0.00 0.00 0.00 60 1020.8
20260902112550 69 270 5.0 7.0 0.00 0.00 0.00 60 1020.8
20260902112350 69 292 5.0 8.0 0.00 0.00 0.00 60 1020.9
20260902112159 69 248 5.0 9.0 0.00 0.00 0.00 59 1020.9
20260902112015 69 248 5.0 9.0 0.00 0.00 0.00 59 1020.9
20260902111820 69 248 5.0 9.0 0.00 0.00 0.00 59 1020.9
20260902111630 69 292 5.0 8.0 0.00 0.00 0.00 59 1020.9
20260902111449 69 248 5.0 8.0 0.00 0.00 0.00 60 1020.9
20260902111300 69 270 5.0 9.0 0.00 0.00 0.00 59 1020.9
20260902111058 69 270 5.0 9.0 0.00 0.00 0.00 58 1020.9
20260902110910 69 270 5.0 9.0 0.00 0.00 0.00 58 1020.9
20260902110839 69 270 5.0 9.0 0.00 0.00 0.00 58 1020.9
20260902110725 69 225 5.0 9.0 0.00 0.00 0.00 58 1021.0
20260902110545 69 292 5.0 8.0 0.00 0.00 0.00 58 1020.9
20260902110350 69 248 5.0 8.0 0.00 0.00 0.00 58 1020.9
20260902110205 69 202 5.0 8.0 0.00 0.00 0.00 59 1020.9
20260902110010 69 248 5.0 10.0 0.00 0.00 0.00 58 1020.9
20260902105827 69 292 5.0 10.0 0.00 0.00 0.00 59 1021.0
20260902105640 69 180 5.0 6.0 0.00 0.00 0.00 58 1020.8
20260902105455 69 225 5.0 7.0 0.00 0.00 0.00 60 1020.8
20260902105306 69 225 4.0 7.0 0.00 0.00 0.00 60 1020.8
20260902105115 69 270 4.0 7.0 0.00 0.00 0.00 59 1020.9
20260902105049 69 292 4.0 7.0 0.00 0.00 0.00 59 1020.9
20260902104918 68 202 4.0 7.0 0.00 0.00 0.00 59 1020.9
20260902104735 68 292 4.0 6.0 0.00 0.00 0.00 60 1020.9
20260902104550 68 225 5.0 7.0 0.00 0.00 0.00 61 1020.9
20260902104405 68 292 5.0 7.0 0.00 0.00 0.00 62 1020.8
20260902104225 68 248 5.0 8.0 0.00 0.00 0.00 60 1020.9
20260902104045 68 270 5.0 8.0 0.00 0.00 0.00 61 1020.9
20260902103853 68 248 5.0 8.0 0.00 0.00 0.00 61 1021.0
20260902103655 68 225 5.0 8.0 0.00 0.00 0.00 60 1020.9
20260902103507 68 225 4.0 8.0 0.00 0.00 0.00 61 1020.9
20260902103437 68 270 4.0 8.0 0.00 0.00 0.00 61 1021.0
20260902103310 69 202 4.0 7.0 0.00 0.00 0.00 61 1021.0
20260902103120 69 202 4.0 7.0 0.00 0.00 0.00 63 1020.9
20260902102920 69 202 4.0 8.0 0.00 0.00 0.00 62 1021.1
20260902102720 69 248 4.0 8.0 0.00 0.00 0.00 62 1021.1
20260902102529 69 248 4.0 8.0 0.00 0.00 0.00 62 1021.1
20260902102330 69 225 4.0 6.0 0.00 0.00 0.00 62 1021.0
20260902102145 69 225 4.0 6.0 0.00 0.00 0.00 62 1021.0
20260902101945 69 270 4.0 9.0 0.00 0.00 0.00 61 1021.0
20260902101750 69 292 4.0 9.0 0.00 0.00 0.00 61 1021.0
20260902101702 69 248 4.0 9.0 0.00 0.00 0.00 62 1021.0
20260902101600 69 248 4.0 7.0 0.00 0.00 0.00 62 1021.0
20260902101420 69 292 4.0 6.0 0.00 0.00 0.00 62 1021.0
20260902101235 69 180 4.0 6.0 0.00 0.00 0.00 62 1021.1
20260902101042 69 292 4.0 8.0 0.00 0.00 0.00 63 1021.0
20260902100845 68 248 4.0 8.0 0.00 0.00 0.00 63 1021.0
20260902100707 69 225 4.0 8.0 0.00 0.00 0.00 63 1021.0
20260902100520 69 292 4.0 8.0 0.00 0.00 0.00 62 1021.1
20260902100320 69 202 4.0 7.0 0.00 0.00 0.00 64 1021.2
20260902100117 69 225 5.0 9.0 0.00 0.00 0.00 64 1021.2
20260902095935 69 225 4.0 10.0 0.00 0.00 0.00 63 1021.2
20260902095753 69 270 5.0 10.0 0.00 0.00 0.00 63 1021.2
20260902095605 69 225 4.0 10.0 0.00 0.00 0.00 64 1021.2
20260902095425 69 202 4.0 7.0 0.00 0.00 0.00 63 1021.2
20260902095227 69 225 4.0 8.0 0.00 0.00 0.00 61 1021.2
20260902095030 69 202 4.0 8.0 0.00 0.00 0.00 62 1021.1
20260902094853 68 315 4.0 8.0 0.00 0.00 0.00 64 1021.2
20260902094700 68 202 4.0 8.0 0.00 0.00 0.00 63 1021.3
20260902094502 68 292 4.0 8.0 0.00 0.00 0.00 64 1021.3
20260902094317 68 270 4.0 6.0 0.00 0.00 0.00 64 1021.3
20260902094237 68 270 3.0 6.0 0.00 0.00 0.00 64 1021.2
20260902094135 68 292 3.0 6.0 0.00 0.00 0.00 65 1021.1
20260902093937 68 270 3.0 5.0 0.00 0.00 0.00 64 1021.2
20260902093750 68 180 2.0 5.0 0.00 0.00 0.00 65 1021.2
20260902093615 68 225 2.0 5.0 0.00 0.00 0.00 65 1021.2
20260902093420 68 225 2.0 5.0 0.00 0.00 0.00 65 1021.3
20260902093233 68 225 2.0 4.0 0.00 0.00 0.00 64 1021.2
20260902093050 68 248 2.0 4.0 0.00 0.00 0.00 64 1021.2
20260902092900 68 248 3.0 5.0 0.00 0.00 0.00 63 1021.2
20260902092705 67 248 4.0 6.0 0.00 0.00 0.00 65 1021.2
20260902092535 67 158 5.0 8.0 0.00 0.00 0.00 64 1021.2
20260902092350 67 248 5.0 8.0 0.00 0.00 0.00 64 1021.1
20260902092155 67 180 5.0 9.0 0.00 0.00 0.00 66 1021.2
20260902092010 67 270 5.0 10.0 0.00 0.00 0.00 65 1021.2
20260902091820 67 225 4.0 10.0 0.00 0.00 0.00 65 1021.3
20260902091634 67 248 4.0 10.0 0.00 0.00 0.00 67 1021.2
20260902091459 67 248 4.0 7.0 0.00 0.00 0.00 66 1021.2
20260902091305 67 270 4.0 6.0 0.00 0.00 0.00 67 1021.2
20260902091115 66 315 4.0 7.0 0.00 0.00 0.00 67 1021.3
20260902090930 66 225 4.0 7.0 0.00 0.00 0.00 68 1021.3
20260902090754 66 225 5.0 8.0 0.00 0.00 0.00 68 1021.3
20260902090615 67 225 4.0 8.0 0.00 0.00 0.00 67 1021.3
20260902090426 67 225 4.0 8.0 0.00 0.00 0.00 68 1021.2
20260902090230 67 292 5.0 9.0 0.00 0.00 0.00 68 1021.3
20260902090055 67 248 5.0 9.0 0.00 0.00 0.00 68 1021.3
20260902085910 67 225 4.0 9.0 0.00 0.00 0.00 68 1021.2
20260902085730 67 225 4.0 9.0 0.00 0.00 0.00 67 1021.2
20260902085543 67 270 4.0 9.0 0.00 0.00 0.00 68 1021.3
20260902085403 67 225 4.0 9.0 0.00 0.00 0.00 68 1021.4
20260902085255 67 248 4.0 7.0 0.00 0.00 0.00 67 1021.4
20260902085217 67 225 4.0 7.0 0.00 0.00 0.00 67 1021.3
20260902085035 67 225 4.0 7.0 0.00 0.00 0.00 68 1021.4
20260902084840 67 225 4.0 10.0 0.00 0.00 0.00 68 1021.3
20260902084640 67 225 3.0 10.0 0.00 0.00 0.00 68 1021.4
20260902084505 66 202 2.0 6.0 0.00 0.00 0.00 69 1021.3
20260902084327 66 225 2.0 6.0 0.00 0.00 0.00 68 1021.3
20260902084142 66 202 2.0 6.0 0.00 0.00 0.00 70 1021.3
20260902083945 66 202 2.0 6.0 0.00 0.00 0.00 70 1021.3
20260902083755 65 202 2.0 6.0 0.00 0.00 0.00 70 1021.3
20260902083600 65 270 3.0 6.0 0.00 0.00 0.00 72 1021.4
20260902083407 65 248 4.0 6.0 0.00 0.00 0.00 71 1021.4
20260902083230 65 270 4.0 6.0 0.00 0.00 0.00 72 1021.3
20260902083040 65 270 4.0 6.0 0.00 0.00 0.00 71 1021.3
20260902082842 65 292 4.0 6.0 0.00 0.00 0.00 72 1021.4
20260902082654 65 292 4.0 5.0 0.00 0.00 0.00 73 1021.3
20260902082510 65 292 4.0 7.0 0.00 0.00 0.00 73 1021.3
20260902082144 65 292 4.0 5.0 0.00 0.00 0.00 72 1021.3
20260902081938 65 292 4.0 5.0 0.00 0.00 0.00 72 1021.3
20260902081744 65 270 4.0 6.0 0.00 0.00 0.00 72 1021.3
20260902081637 65 202 4.0 6.0 0.00 0.00 0.00 72 1021.3
20260902081544 65 202 4.0 6.0 0.00 0.00 0.00 72 1021.4
20260902081355 65 248 4.0 6.0 0.00 0.00 0.00 72 1021.3
20260902081208 65 248 4.0 6.0 0.00 0.00 0.00 73 1021.4
20260902081030 65 248 4.0 7.0 0.00 0.00 0.00 73 1021.4
20260902080850 65 248 4.0 7.0 0.00 0.00 0.00 73 1021.4
20260902080708 65 292 4.0 7.0 0.00 0.00 0.00 73 1021.4
20260902080510 65 248 4.0 5.0 0.00 0.00 0.00 73 1021.4
20260902080325 65 248 4.0 9.0 0.00 0.00 0.00 74 1021.4
20260902080143 65 225 4.0 9.0 0.00 0.00 0.00 74 1021.3
20260902080022 65 248 4.0 9.0 0.00 0.00 0.00 74 1021.3
20260902075944 65 248 4.0 9.0 0.00 0.00 0.00 74 1021.3
20260902075749 65 248 4.0 8.0 0.00 0.00 0.00 73 1021.3
20260902075605 65 180 4.0 6.0 0.00 0.00 0.00 72 1021.3
20260902075408 65 270 4.0 8.0 0.00 0.00 0.00 73 1021.2
20260902075212 65 225 4.0 8.0 0.00 0.00 0.00 73 1021.3
20260902075034 65 292 4.0 8.0 0.00 0.00 0.00 74 1021.2
20260902074845 64 270 4.0 8.0 0.00 0.00 0.00 75 1021.3
20260902074650 64 225 4.0 8.0 0.00 0.00 0.00 76 1021.3
20260902074454 64 292 4.0 8.0 0.00 0.00 0.00 77 1021.3
20260902074301 64 292 4.0 8.0 0.00 0.00 0.00 76 1021.3
20260902074145 64 202 4.0 8.0 0.00 0.00 0.00 77 1021.3
20260902074110 64 202 4.0 8.0 0.00 0.00 0.00 77 1021.3
20260902073915 64 292 4.0 8.0 0.00 0.00 0.00 77 1021.3
20260902073727 64 270 4.0 6.0 0.00 0.00 0.00 78 1021.2
20260902073545 63 248 4.0 5.0 0.00 0.00 0.00 79 1021.3
20260902073355 63 248 4.0 5.0 0.00 0.00 0.00 79 1021.2
20260902073215 63 225 4.0 6.0 0.00 0.00 0.00 80 1021.3
20260902073020 63 248 4.0 6.0 0.00 0.00 0.00 80 1021.2
20260902072830 63 270 4.0 6.0 0.00 0.00 0.00 80 1021.2
20260902072630 63 248 4.0 6.0 0.00 0.00 0.00 80 1021.1
20260902072438 63 292 4.0 6.0 0.00 0.00 0.00 80 1021.0
20260902072402 63 202 4.0 6.0 0.00 0.00 0.00 81 1021.0
20260902072258 63 292 4.0 6.0 0.00 0.00 0.00 81 1021.0
20260902072114 62 270 4.0 6.0 0.00 0.00 0.00 81 1021.0
20260902071915 62 248 3.0 5.0 0.00 0.00 0.00 81 1021.0
20260902071714 62 248 3.0 5.0 0.00 0.00 0.00 82 1021.0
20260902071515 62 202 3.0 5.0 0.00 0.00 0.00 82 1020.9
20260902071337 62 270 3.0 5.0 0.00 0.00 0.00 82 1020.9
20260902071150 62 292 3.0 5.0 0.00 0.00 0.00 83 1020.9
20260902071005 62 292 3.0 6.0 0.00 0.00 0.00 83 1021.0
20260902070800 61 292 3.0 6.0 0.00 0.00 0.00 84 1021.0
20260902070610 61 248 3.0 6.0 0.00 0.00 0.00 84 1021.0
20260902070420 61 270 3.0 5.0 0.00 0.00 0.00 84 1020.9
20260902070237 61 292 3.0 5.0 0.00 0.00 0.00 84 1020.9
20260902070045 61 225 3.0 5.0 0.00 0.00 0.00 84 1020.9
20260902065910 61 270 2.0 5.0 0.00 0.00 0.00 85 1021.1
20260902065725 61 270 2.0 5.0 0.00 0.00 0.00 85 1020.9
20260902065534 61 292 2.0 5.0 0.00 0.00 0.00 85 1021.0
20260902065355 61 270 3.0 5.0 0.00 0.00 0.00 85 1021.0
20260902065155 61 292 2.0 5.0 0.00 0.00 0.00 86 1021.0
20260902065148 61 292 2.0 5.0 0.00 0.00 0.00 86 1020.9
20260902065005 61 270 2.0 5.0 0.00 0.00 0.00 86 1021.0
20260902064804 60 292 3.0 5.0 0.00 0.00 0.00 86 1021.0
20260902064605 60 292 2.0 4.0 0.00 0.00 0.00 86 1021.0
20260902064422 60 248 2.0 3.0 0.00 0.00 0.00 87 1021.0
20260902064223 60 248 2.0 5.0 0.00 0.00 0.00 87 1021.1
20260902064029 60 248 2.0 5.0 0.00 0.00 0.00 87 1021.0
20260902063854 60 270 1.0 5.0 0.00 0.00 0.00 87 1021.1
20260902063714 60 225 1.0 5.0 0.00 0.00 0.00 88 1021.0
20260902063534 60 225 1.0 5.0 0.00 0.00 0.00 88 1021.0
20260902063424 59 225 2.0 5.0 0.00 0.00 0.00 89 1021.0
20260902063340 59 225 2.0 5.0 0.00 0.00 0.00 89 1021.0
20260902063155 59 248 1.0 5.0 0.00 0.00 0.00 89 1021.0
20260902062955 59 248 1.0 2.0 0.00 0.00 0.00 89 1021.0
20260902062808 59 248 2.0 5.0 0.00 0.00 0.00 90 1021.0
20260902062615 58 248 2.0 5.0 0.00 0.00 0.00 90 1020.9
20260902062440 58 248 2.0 5.0 0.00 0.00 0.00 91 1021.0
20260902062250 58 292 2.0 5.0 0.00 0.00 0.00 91 1021.1
20260902062100 58 202 2.0 5.0 0.00 0.00 0.00 91 1021.0
20260902061917 58 202 2.0 5.0 0.00 0.00 0.00 91 1021.0
20260902061740 58 248 1.0 5.0 0.00 0.00 0.00 92 1021.0
20260902061613 58 248 1.0 5.0 0.00 0.00 0.00 92 1021.1
20260902061557 58 248 1.0 5.0 0.00 0.00 0.00 92 1021.1
20260902061415 58 248 1.0 3.0 0.00 0.00 0.00 92 1021.2
20260902061225 58 225 0.0 3.0 0.00 0.00 0.00 92 1021.1
20260902061035 58 225 0.0 3.0 0.00 0.00 0.00 92 1021.1
20260902060843 58 202 0.0 2.0 0.00 0.00 0.00 92 1021.1
20260902060655 58 202 0.0 2.0 0.00 0.00 0.00 92 1021.1
20260902060518 58 202 0.0 2.0 0.00 0.00 0.00 92 1021.2
20260902060319 58 202 0.0 2.0 0.00 0.00 0.00 92 1021.1
20260902060120 58 202 0.0 3.0 0.00 0.00 0.00 93 1021.2
20260902060011 58 202 0.0 3.0 0.00 0.00 0.00 93 1021.0
20260902055930 58 202 0.0 3.0 0.00 0.00 0.00 92 1021.1
20260902055735 58 202 0.0 3.0 0.00 0.00 0.00 92 1021.1
20260902055538 58 248 0.0 1.0 0.00 0.00 0.00 93 1021.1
20260902055355 58 248 0.0 2.0 0.00 0.00 0.00 93 1021.0
20260902055218 57 248 0.0 2.0 0.00 0.00 0.00 93 1021.1
20260902055030 57 202 0.0 3.0 0.00 0.00 0.00 93 1021.1
20260902054850 57 202 0.0 3.0 0.00 0.00 0.00 93 1021.0
20260902054709 57 202 0.0 3.0 0.00 0.00 0.00 93 1021.1
20260902054510 57 202 0.0 1.0 0.00 0.00 0.00 93 1021.1
20260902054323 57 202 0.0 1.0 0.00 0.00 0.00 93 1021.1
20260902054222 57 202 1.0 1.0 0.00 0.00 0.00 93 1021.0
20260902054125 57 202 1.0 3.0 0.00 0.00 0.00 93 1021.1
20260902053935 57 202 1.0 3.0 0.00 0.00 0.00 93 1021.0
20260902053749 57 202 1.0 3.0 0.00 0.00 0.00 93 1021.0
20260902053555 57 202 0.0 3.0 0.00 0.00 0.00 94 1021.1
20260902053410 57 202 0.0 3.0 0.00 0.00 0.00 94 1021.1
20260902053210 57 202 0.0 2.0 0.00 0.00 0.00 94 1021.0
20260902053019 57 248 0.0 0.0 0.00 0.00 0.00 94 1021.1
20260902052835 57 248 0.0 4.0 0.00 0.00 0.00 94 1021.2
20260902052644 57 248 0.0 4.0 0.00 0.00 0.00 94 1021.1
20260902052500 57 292 0.0 0.0 0.00 0.00 0.00 95 1021.2
20260902052307 56 292 0.0 4.0 0.00 0.00 0.00 95 1021.2
20260902052115 56 292 0.0 4.0 0.00 0.00 0.00 95 1021.2
20260902051925 56 292 0.0 4.0 0.00 0.00 0.00 95 1021.2
20260902051725 56 270 0.0 2.0 0.00 0.00 0.00 95 1021.2
20260902051535 56 270 0.0 2.0 0.00 0.00 0.00 95 1021.2
20260902051348 56 248 0.0 2.0 0.00 0.00 0.00 96 1021.2
20260902051147 56 248 0.0 1.0 0.00 0.00 0.00 96 1021.1
20260902051020 56 248 0.0 1.0 0.00 0.00 0.00 96 1021.1
20260902050830 56 225 0.0 1.0 0.00 0.00 0.00 96 1021.2
20260902050638 56 248 0.0 2.0 0.00 0.00 0.00 96 1021.1
20260902050442 55 248 0.0 2.0 0.00 0.00 0.00 96 1021.2
20260902050257 55 248 0.0 1.0 0.00 0.00 0.00 96 1021.1
20260902050110 55 248 0.0 1.0 0.00 0.00 0.00 97 1021.2
20260902045915 55 248 0.0 2.0 0.00 0.00 0.00 97 1021.1
20260902045746 55 248 1.0 2.0 0.00 0.00 0.00 97 1021.2
20260902045545 55 248 1.0 2.0 0.00 0.00 0.00 97 1021.1
20260902045355 55 248 1.0 2.0 0.00 0.00 0.00 97 1021.1
20260902045218 55 248 1.0 4.0 0.00 0.00 0.00 97 1021.0
20260902045024 55 248 1.0 4.0 0.00 0.00 0.00 97 1021.0
20260902044830 55 248 1.0 4.0 0.00 0.00 0.00 97 1021.0
20260902044650 55 248 1.0 3.0 0.00 0.00 0.00 97 1021.0
20260902044454 55 248 1.0 3.0 0.00 0.00 0.00 97 1021.1
20260902044301 55 248 0.0 2.0 0.00 0.00 0.00 97 1021.1
20260902044115 55 248 1.0 2.0 0.00 0.00 0.00 97 1021.1
20260902043930 55 248 1.0 3.0 0.00 0.00 0.00 97 1021.0
20260902043842 55 248 1.0 3.0 0.00 0.00 0.00 97 1021.1
20260902043748 55 248 1.0 3.0 0.00 0.00 0.00 97 1021.0
20260902043607 55 248 1.0 3.0 0.00 0.00 0.00 97 1021.1
20260902043423 55 248 1.0 2.0 0.00 0.00 0.00 97 1021.1
20260902043225 55 248 1.0 4.0 0.00 0.00 0.00 97 1021.1
20260902043028 55 248 1.0 4.0 0.00 0.00 0.00 97 1021.1
20260902042840 55 225 1.0 4.0 0.00 0.00 0.00 97 1021.1
20260902042650 55 270 1.0 0.0 0.00 0.00 0.00 97 1021.1
20260902042505 55 270 1.0 2.0 0.00 0.00 0.00 97 1021.2
20260902042315 55 270 1.0 4.0 0.00 0.00 0.00 97 1021.2
20260902042245 55 270 1.0 4.0 0.00 0.00 0.00 97 1021.1
20260902042125 55 248 1.0 4.0 0.00 0.00 0.00 97 1021.2
20260902041930 55 248 1.0 4.0 0.00 0.00 0.00 97 1021.1
20260902041750 55 248 1.0 3.0 0.00 0.00 0.00 96 1021.1
20260902041556 55 248 1.0 3.0 0.00 0.00 0.00 96 1021.1
20260902041420 55 225 1.0 3.0 0.00 0.00 0.00 96 1021.0
20260902041240 55 225 0.0 3.0 0.00 0.00 0.00 96 1021.0
20260902041049 55 225 0.0 2.0 0.00 0.00 0.00 96 1021.0
20260902040858 55 270 0.0 0.0 0.00 0.00 0.00 96 1020.9
20260902040720 55 270 0.0 0.0 0.00 0.00 0.00 96 1020.9
20260902040522 55 270 0.0 0.0 0.00 0.00 0.00 96 1020.9
20260902040429 55 270 1.0 3.0 0.00 0.00 0.00 96 1020.9
20260902040329 55 270 1.0 3.0 0.00 0.00 0.00 96 1020.8
20260902040130 55 270 1.0 3.0 0.00 0.00 0.00 96 1020.8
20260902035931 55 270 1.0 3.0 0.00 0.00 0.00 96 1020.9
20260902035750 55 292 1.0 3.0 0.00 0.00 0.00 96 1020.7
20260902035554 55 292 1.0 3.0 0.00 0.00 0.00 96 1020.8
20260902035405 55 292 1.0 3.0 0.00 0.00 0.00 96 1020.7
20260902035213 56 292 1.0 2.0 0.00 0.00 0.00 96 1020.8
20260902035020 56 292 1.0 3.0 0.00 0.00 0.00 96 1020.7
20260902034825 56 292 1.0 4.0 0.00 0.00 0.00 96 1020.7
20260902034644 56 292 1.0 4.0 0.00 0.00 0.00 96 1020.7
20260902034532 56 292 1.0 4.0 0.00 0.00 0.00 96 1020.7
20260902034500 56 292 1.0 4.0 0.00 0.00 0.00 96 1020.7
20260902034320 56 292 0.0 4.0 0.00 0.00 0.00 96 1020.6
20260902034145 56 292 0.0 3.0 0.00 0.00 0.00 96 1020.5
20260902033955 56 0 0.0 0.0 0.00 0.00 0.00 96 1020.4
20260902033815 56 0 0.0 0.0 0.00 0.00 0.00 96 1020.5
20260902033639 56 0 0.0 0.0 0.00 0.00 0.00 96 1020.4
20260902033450 56 0 0.0 0.0 0.00 0.00 0.00 96 1020.5
20260902033305 56 0 0.0 0.0 0.00 0.00 0.00 96 1020.4
20260902033120 56 0 0.0 0.0 0.00 0.00 0.00 96 1020.4
20260902032940 56 0 0.0 0.0 0.00 0.00 0.00 95 1020.4
20260902032800 56 0 0.0 0.0 0.00 0.00 0.00 95 1020.4
20260902032731 56 0 0.0 0.0 0.00 0.00 0.00 96 1020.4
20260902032623 56 0 0.0 0.0 0.00 0.00 0.00 95 1020.4
20260902032445 56 0 0.0 0.0 0.00 0.00 0.00 95 1020.3
20260902032309 56 0 0.0 0.0 0.00 0.00 0.00 95 1020.4
20260902032120 56 0 0.0 0.0 0.00 0.00 0.00 95 1020.3
20260902031940 56 0 0.0 0.0 0.00 0.00 0.00 95 1020.3
20260902031754 56 0 0.0 0.0 0.00 0.00 0.00 95 1020.3
20260902031604 56 0 0.0 0.0 0.00 0.00 0.00 95 1020.3
20260902031410 56 0 0.0 0.0 0.00 0.00 0.00 95 1020.2
20260902031214 56 0 0.0 0.0 0.00 0.00 0.00 95 1020.1
20260902031030 56 0 0.0 0.0 0.00 0.00 0.00 95 1020.2
20260902030830 56 0 0.0 0.0 0.00 0.00 0.00 95 1020.1
20260902030630 56 0 0.0 0.0 0.00 0.00 0.00 95 1020.2
20260902030430 56 0 0.0 0.0 0.00 0.02 0.00 95 1020.2
20260902030234 56 0 0.0 0.0 0.00 0.02 0.00 95 1020.3
20260902030051 56 0 0.0 0.0 0.00 0.02 0.00 95 1020.2
20260902025915 56 0 0.0 0.0 0.00 0.02 0.00 95 1020.2
20260902025720 56 0 0.0 0.0 0.00 0.02 0.00 95 1020.2
20260902025534 56 0 0.0 0.0 0.00 0.02 0.00 95 1020.2
20260902025345 56 0 0.0 0.0 0.00 0.02 0.00 95 1020.3
20260902025251 56 0 0.0 0.0 0.00 0.02 0.00 95 1020.4
20260902025204 56 0 0.0 0.0 0.00 0.02 0.00 95 1020.4
20260902025014 56 0 0.0 0.0 0.00 0.02 0.00 95 1020.3
20260902024815 56 0 0.0 0.0 0.00 0.02 0.00 95 1020.3
20260902024617 56 0 0.0 0.0 0.00 0.02 0.00 95 1020.4
20260902024420 56 0 0.0 0.0 0.00 0.02 0.00 95 1020.3
20260902024240 56 0 0.0 0.0 0.00 0.02 0.00 95 1020.3
20260902024100 56 0 0.0 0.0 0.00 0.02 0.00 95 1020.3
20260902023908 56 0 0.0 0.0 0.00 0.02 0.00 95 1020.3
20260902023725 56 0 0.0 0.0 0.00 0.02 0.00 95 1020.3
20260902023549 56 0 0.0 0.0 0.00 0.02 0.00 95 1020.4
20260902023410 56 0 0.0 0.0 0.00 0.02 0.00 95 1020.4
20260902023218 56 0 0.0 0.0 0.00 0.02 0.00 95 1020.4
20260902023018 56 0 0.0 0.0 0.00 0.02 0.00 95 1020.3
20260902022835 56 0 0.0 0.0 0.00 0.02 0.00 95 1020.4
20260902022658 56 0 0.0 0.0 0.00 0.02 0.00 95 1020.4
20260902022520 57 0 0.0 0.0 0.00 0.02 0.00 95 1020.3
20260902022337 57 0 0.0 0.0 0.00 0.02 0.00 95 1020.3
20260902022157 57 0 0.0 0.0 0.00 0.02 0.00 95 1020.3
20260902022015 57 0 0.0 0.0 0.00 0.02 0.00 95 1020.4
20260902021825 57 0 0.0 0.0 0.00 0.02 0.00 95 1020.3
20260902021638 57 0 0.0 0.0 0.00 0.02 0.00 95 1020.4
20260902021445 57 0 0.0 0.0 0.00 0.02 0.00 95 1020.3
20260902021250 57 0 0.0 0.0 0.00 0.02 0.00 95 1020.3
20260902021050 57 0 0.0 0.0 0.00 0.02 0.00 95 1020.4
20260902020900 57 0 0.0 0.0 0.00 0.02 0.00 95 1020.4
20260902020700 57 0 0.0 0.0 0.00 0.02 0.00 95 1020.4
20260902020520 57 0 0.0 0.0 0.00 0.02 0.00 95 1020.4
20260902020338 57 0 0.0 0.0 0.00 0.02 0.00 95 1020.4
20260902020150 57 0 0.0 0.0 0.00 0.02 0.00 95 1020.4
20260902020002 57 248 0.0 0.0 0.00 0.02 0.00 95 1020.5
20260902015932 57 248 0.0 0.0 0.00 0.02 0.00 95 1020.5
20260902015803 57 248 0.0 3.0 0.00 0.02 0.00 95 1020.5
20260902015604 57 248 0.0 3.0 0.00 0.02 0.00 95 1020.4
20260902015427 57 248 0.0 3.0 0.00 0.02 0.00 94 1020.5
20260902015233 57 248 0.0 2.0 0.00 0.02 0.00 94 1020.5
20260902015037 57 248 1.0 2.0 0.00 0.02 0.00 94 1020.6
20260902014840 57 248 0.0 3.0 0.00 0.02 0.00 94 1020.6
20260902014645 57 248 0.0 3.0 0.00 0.02 0.00 94 1020.5
20260902014459 57 248 1.0 3.0 0.00 0.02 0.00 94 1020.5
20260902014315 57 248 1.0 3.0 0.00 0.02 0.00 94 1020.6
20260902014212 57 248 1.0 2.0 0.00 0.02 0.00 94 1020.6
20260902014134 58 248 1.0 2.0 0.00 0.02 0.00 94 1020.5
20260902013935 58 248 1.0 3.0 0.00 0.02 0.00 94 1020.5
20260902013735 58 248 2.0 4.0 0.00 0.02 0.00 94 1020.5
20260902013535 58 248 2.0 4.0 0.00 0.02 0.00 94 1020.5
20260902013441 58 202 2.0 5.0 0.00 0.02 0.00 94 1020.5
20260902013153 58 202 2.0 5.0 0.00 0.02 0.00 94 1020.5
20260902012958 58 292 2.0 5.0 0.00 0.02 0.00 94 1020.6
20260902012815 58 248 2.0 5.0 0.00 0.02 0.00 94 1020.5
20260902012620 58 248 2.0 5.0 0.00 0.02 0.00 94 1020.6
20260902012502 58 248 2.0 5.0 0.00 0.02 0.00 94 1020.5
20260902012440 58 248 2.0 5.0 0.00 0.02 0.00 94 1020.6
20260902012244 58 270 2.0 5.0 0.00 0.02 0.00 94 1020.6
20260902012050 58 248 2.0 5.0 0.00 0.02 0.00 94 1020.6
20260902011850 58 225 1.0 3.0 0.00 0.02 0.00 94 1020.6
20260902011710 58 248 2.0 3.0 0.00 0.02 0.00 94 1020.5
20260902011514 58 270 1.0 3.0 0.00 0.02 0.00 94 1020.5
20260902011316 58 248 1.0 4.0 0.00 0.02 0.00 94 1020.5
20260902011135 58 248 2.0 4.0 0.00 0.02 0.00 94 1020.5
20260902010940 58 248 2.0 5.0 0.00 0.02 0.00 94 1020.5
20260902010744 58 248 2.0 5.0 0.00 0.02 0.00 94 1020.4
20260902010605 58 248 2.0 5.0 0.00 0.02 0.00 94 1020.4
20260902010423 58 292 2.0 5.0 0.00 0.02 0.00 94 1020.5
20260902010238 58 270 3.0 5.0 0.00 0.02 0.00 94 1020.5
20260902010052 58 292 2.0 5.0 0.00 0.02 0.00 95 1020.3
20260902005905 58 292 2.0 5.0 0.00 0.02 0.00 95 1020.4
20260902005715 58 225 2.0 5.0 0.00 0.02 0.00 95 1020.4
20260902005535 58 248 2.0 5.0 0.00 0.02 0.00 95 1020.4
20260902005358 58 292 2.0 2.0 0.00 0.02 0.00 95 1020.4
20260902005220 58 292 2.0 2.0 0.00 0.02 0.00 95 1020.4
20260902005025 58 292 2.0 3.0 0.00 0.02 0.00 95 1020.4
20260902004842 58 292 2.0 5.0 0.00 0.02 0.00 95 1020.3
20260902004825 58 292 2.0 5.0 0.00 0.02 0.00 95 1020.4
20260902004645 58 292 2.0 5.0 0.00 0.02 0.00 95 1020.5
20260902004455 58 292 2.0 5.0 0.00 0.02 0.00 95 1020.4
20260902004255 58 270 1.0 5.0 0.00 0.02 0.00 95 1020.4
20260902004100 58 292 1.0 4.0 0.00 0.02 0.00 95 1020.4
20260902003915 58 270 1.0 4.0 0.00 0.02 0.00 95 1020.3
20260902003737 58 270 1.0 3.0 0.00 0.02 0.00 95 1020.4
20260902003603 58 270 1.0 3.0 0.00 0.02 0.00 95 1020.4
20260902003420 58 270 0.0 3.0 0.00 0.02 0.00 95 1020.4
20260902003225 58 270 0.0 3.0 0.00 0.02 0.00 95 1020.3
20260902003045 58 270 0.0 2.0 0.00 0.02 0.00 95 1020.3
20260902003026 58 270 0.0 2.0 0.00 0.02 0.00 95 1020.3
20260902002850 58 270 0.0 2.0 0.00 0.02 0.00 95 1020.3
20260902002715 58 270 0.0 2.0 0.00 0.02 0.00 95 1020.3
20260902002525 58 270 0.0 2.0 0.00 0.02 0.00 95 1020.2
20260902002335 58 270 0.0 2.0 0.00 0.02 0.00 95 1020.2
20260902002150 58 270 0.0 2.0 0.00 0.02 0.00 95 1020.2
20260902002015 58 270 0.0 2.0 0.00 0.02 0.00 95 1020.2
20260902001820 58 270 0.0 3.0 0.00 0.02 0.00 95 1020.2
20260902001620 58 270 0.0 3.0 0.00 0.02 0.00 95 1020.3
20260902001457 58 270 1.0 3.0 0.00 0.02 0.00 95 1020.3
20260902001425 58 270 1.0 3.0 0.00 0.02 0.00 95 1020.3
20260902001240 58 270 1.0 3.0 0.00 0.02 0.00 95 1020.2
20260902001045 58 270 1.0 3.0 0.00 0.02 0.00 95 1020.1
20260902000907 58 270 1.0 3.0 0.00 0.02 0.00 95 1020.2
20260902000715 58 270 1.0 3.0 0.00 0.02 0.00 95 1020.2
20260902000525 58 270 0.0 3.0 0.00 0.02 0.00 95 1020.1
20260902000330 58 270 0.0 2.0 0.00 0.02 0.00 95 1020.2
20260902000135 58 270 0.0 2.0 0.00 0.02 0.00 95 1020.2
20260901235935 58 270 0.0 2.0 0.00 0.02 0.00 95 1020.2
20260901235735 58 270 0.0 2.0 0.00 0.02 0.00 95 1020.2
20260901235627 58 270 0.0 4.0 0.00 0.02 0.00 95 1020.1
20260901235545 58 270 0.0 4.0 0.00 0.02 0.00 95 1020.2
20260901235405 58 270 0.0 4.0 0.00 0.02 0.00 95 1020.1
20260901235205 58 292 0.0 4.0 0.00 0.02 0.00 95 1020.1
20260901235020 58 292 0.0 4.0 0.00 0.02 0.00 94 1020.1
20260901234835 58 292 0.0 4.0 0.00 0.02 0.00 95 1020.1
20260901234635 59 292 0.0 2.0 0.00 0.02 0.00 94 1020.2
20260901234455 59 292 0.0 2.0 0.00 0.02 0.00 94 1020.1
20260901234305 59 292 0.0 2.0 0.00 0.02 0.00 94 1020.1
20260901234125 59 292 0.0 2.0 0.00 0.02 0.00 94 1020.1
20260901233925 59 292 0.0 2.0 0.00 0.02 0.00 94 1020.1
20260901233827 59 292 0.0 2.0 0.00 0.02 0.00 94 1020.1
20260901233735 59 292 0.0 2.0 0.00 0.02 0.00 94 1020.1
20260901233551 59 292 0.0 2.0 0.00 0.02 0.00 94 1020.1
20260901233400 59 292 0.0 2.0 0.00 0.02 0.00 94 1020.1
20260901233215 59 292 0.0 2.0 0.00 0.02 0.00 94 1020.1
20260901233030 59 292 0.0 2.0 0.00 0.02 0.00 94 1020.1
20260901232835 59 292 0.0 4.0 0.00 0.02 0.00 94 1020.1
20260901232655 59 292 0.0 4.0 0.00 0.02 0.00 94 1020.1
20260901232515 59 292 0.0 4.0 0.00 0.02 0.00 94 1020.1
20260901232315 59 270 0.0 2.0 0.00 0.02 0.00 94 1020.1
20260901232130 59 270 0.0 2.0 0.00 0.02 0.00 94 1020.1
20260901231950 59 270 0.0 2.0 0.00 0.02 0.00 94 1020.0
20260901231757 59 270 0.0 2.0 0.00 0.02 0.00 94 1020.1
20260901231620 59 270 1.0 2.0 0.00 0.02 0.00 93 1020.1
20260901231437 59 270 1.0 2.0 0.00 0.02 0.00 93 1020.1
20260901231255 59 270 1.0 2.0 0.00 0.02 0.00 93 1020.0
20260901231115 59 270 1.0 2.0 0.00 0.02 0.00 93 1020.1
20260901230930 59 270 0.0 2.0 0.00 0.02 0.00 93 1020.1
20260901230730 60 270 0.0 2.0 0.00 0.02 0.00 93 1020.1
20260901230540 60 270 0.0 2.0 0.00 0.02 0.00 93 1020.0
20260901230400 60 270 0.0 2.0 0.00 0.02 0.00 93 1020.1
20260901230158 60 0 0.0 2.0 0.00 0.02 0.00 93 1020.0
20260901230114 60 0 0.0 0.0 0.00 0.02 0.00 93 1020.1
20260901230015 60 0 0.0 0.0 0.00 0.02 0.00 93 1020.1
20260901225835 60 0 0.0 0.0 0.00 0.02 0.00 93 1020.0
20260901225635 60 0 0.0 0.0 0.00 0.02 0.00 93 1020.1
20260901225435 60 0 0.0 0.0 0.00 0.02 0.00 93 1020.1
20260901225242 60 270 0.0 2.0 0.00 0.02 0.00 92 1020.1
20260901225108 60 270 0.0 2.0 0.00 0.02 0.00 92 1020.1
20260901224910 60 270 0.0 2.0 0.00 0.02 0.00 92 1020.1
20260901224715 60 270 0.0 2.0 0.00 0.02 0.00 92 1020.1
20260901224535 60 270 1.0 2.0 0.00 0.02 0.00 92 1020.1
20260901224340 60 270 1.0 2.0 0.00 0.02 0.00 92 1020.1
20260901224258 60 270 1.0 3.0 0.00 0.02 0.00 92 1020.1
20260901224147 60 270 2.0 3.0 0.00 0.02 0.00 92 1020.1
20260901224009 60 270 2.0 3.0 0.00 0.02 0.00 92 1020.1
20260901223810 60 270 2.0 3.0 0.00 0.02 0.00 92 1020.1
20260901223623 60 270 1.0 3.0 0.00 0.02 0.00 91 1020.0
20260901223440 60 270 1.0 3.0 0.00 0.02 0.00 91 1020.1
20260901223255 60 270 1.0 2.0 0.00 0.02 0.00 91 1020.1
20260901223105 61 270 1.0 3.0 0.00 0.02 0.00 91 1020.1
20260901222920 61 270 1.0 3.0 0.00 0.02 0.00 91 1020.1
20260901222730 61 270 1.0 3.0 0.00 0.02 0.00 91 1020.0
20260901222556 61 270 1.0 4.0 0.00 0.02 0.00 91 1020.1
20260901222530 61 292 1.0 4.0 0.00 0.02 0.00 91 1020.1
20260901222340 61 292 1.0 4.0 0.00 0.02 0.00 91 1020.1
20260901222159 61 292 1.0 4.0 0.00 0.02 0.00 90 1020.0
20260901222005 61 292 2.0 4.0 0.00 0.02 0.00 90 1020.0
20260901221810 61 292 2.0 4.0 0.00 0.02 0.00 90 1020.1
20260901221615 61 292 2.0 4.0 0.00 0.02 0.00 90 1020.0
20260901221419 61 292 2.0 4.0 0.00 0.02 0.00 90 1020.0
20260901221228 61 292 2.0 4.0 0.00 0.02 0.00 90 1020.0
20260901221045 62 292 2.0 4.0 0.00 0.02 0.00 89 1020.0
20260901220855 62 292 2.0 4.0 0.00 0.02 0.00 89 1019.9
20260901220654 62 292 3.0 4.0 0.00 0.02 0.00 89 1020.0
20260901220500 62 292 2.0 4.0 0.00 0.02 0.00 89 1020.0
20260901220310 62 248 2.0 4.0 0.00 0.02 0.00 89 1019.9
20260901220125 62 248 3.0 5.0 0.00 0.02 0.00 89 1019.9
20260901215941 62 292 3.0 5.0 0.00 0.02 0.02 88 1019.8
20260901215800 62 292 3.0 5.0 0.00 0.02 0.02 88 1019.9
20260901215620 62 248 3.0 6.0 0.00 0.02 0.02 88 1019.8
20260901215440 62 248 3.0 6.0 0.00 0.02 0.02 88 1019.8
20260901215222 62 248 3.0 6.0 0.00 0.02 0.02 88 1019.8
20260901215104 62 225 3.0 5.0 0.00 0.02 0.02 88 1019.8
20260901214920 62 248 3.0 5.0 0.00 0.02 0.02 88 1019.8
20260901214725 62 248 3.0 5.0 0.00 0.02 0.02 88 1019.8
20260901214540 62 225 3.0 5.0 0.00 0.02 0.02 87 1019.8
20260901214400 62 270 3.0 5.0 0.00 0.02 0.02 87 1019.8
20260901214200 62 202 3.0 5.0 0.00 0.02 0.02 87 1019.8
20260901214000 62 248 3.0 5.0 0.00 0.02 0.02 87 1019.8
20260901213805 62 248 3.0 5.0 0.00 0.02 0.02 87 1019.8
20260901213613 62 292 3.0 5.0 0.00 0.02 0.02 87 1019.8
20260901213417 62 248 3.0 5.0 0.00 0.02 0.02 87 1019.7
20260901213238 63 248 3.0 5.0 0.00 0.02 0.02 87 1019.7
20260901213039 63 225 3.0 5.0 0.00 0.02 0.02 86 1019.8
20260901212850 63 292 3.0 5.0 0.00 0.02 0.02 86 1019.7
20260901212655 63 292 3.0 5.0 0.00 0.02 0.02 86 1019.7
20260901212520 63 270 3.0 5.0 0.00 0.02 0.02 86 1019.7
20260901212335 63 270 3.0 5.0 0.00 0.02 0.02 86 1019.8
20260901212138 63 270 3.0 5.0 0.00 0.02 0.02 86 1019.7
20260901211950 63 270 3.0 5.0 0.00 0.02 0.02 86 1019.8
20260901211750 63 292 2.0 5.0 0.00 0.02 0.02 85 1019.7
20260901211607 63 292 2.0 5.0 0.00 0.02 0.02 85 1019.7
20260901211556 63 292 2.0 5.0 0.00 0.02 0.02 85 1019.7
20260901211405 63 248 2.0 5.0 0.00 0.02 0.02 85 1019.8
20260901211220 63 225 2.0 5.0 0.00 0.02 0.02 85 1019.7
20260901211040 63 270 2.0 5.0 0.00 0.02 0.02 85 1019.7
20260901210854 63 270 3.0 5.0 0.00 0.02 0.02 84 1019.7
20260901210720 63 270 3.0 5.0 0.00 0.02 0.02 84 1019.6
20260901210525 63 270 3.0 5.0 0.00 0.02 0.02 84 1019.7
20260901210335 63 292 3.0 5.0 0.00 0.02 0.02 84 1019.6
20260901210135 64 225 3.0 6.0 0.00 0.02 0.02 84 1019.6
20260901210043 64 270 3.0 6.0 0.00 0.02 0.02 84 1019.7
20260901205940 64 248 3.0 6.0 0.00 0.02 0.02 84 1019.6
20260901205800 64 225 3.0 6.0 0.00 0.02 0.02 83 1019.7
20260901205615 64 225 4.0 6.0 0.00 0.02 0.02 83 1019.6
20260901205425 64 248 4.0 6.0 0.00 0.02 0.02 83 1019.6
20260901205250 64 248 4.0 6.0 0.00 0.02 0.02 83 1019.6
20260901205104 64 248 4.0 6.0 0.00 0.02 0.02 82 1019.6
20260901204908 64 225 4.0 6.0 0.00 0.02 0.02 82 1019.6
20260901204730 64 292 4.0 6.0 0.00 0.02 0.02 82 1019.6
20260901204540 64 292 4.0 6.0 0.00 0.02 0.02 82 1019.5
20260901204523 64 270 4.0 6.0 0.00 0.02 0.02 82 1019.5
20260901204340 64 270 4.0 6.0 0.00 0.02 0.02 82 1019.6
20260901204156 64 248 4.0 6.0 0.00 0.02 0.02 81 1019.6
20260901204000 64 270 4.0 6.0 0.00 0.02 0.02 81 1019.5
20260901203800 64 225 4.0 7.0 0.00 0.02 0.02 81 1019.6
20260901203610 64 225 4.0 7.0 0.00 0.02 0.02 80 1019.5
20260901203420 64 248 4.0 7.0 0.00 0.02 0.02 80 1019.5
20260901203230 64 270 4.0 6.0 0.00 0.02 0.02 80 1019.4
20260901203055 64 225 4.0 6.0 0.00 0.02 0.02 80 1019.5
20260901202908 64 248 3.0 5.0 0.00 0.03 0.02 80 1019.5
20260901202853 64 248 3.0 5.0 0.00 0.03 0.02 80 1019.5
20260901202720 64 248 3.0 5.0 0.00 0.03 0.02 79 1019.5
20260901202525 64 225 4.0 5.0 0.00 0.03 0.02 79 1019.5
20260901202345 65 270 4.0 5.0 0.00 0.03 0.02 79 1019.5
20260901202205 65 270 4.0 5.0 0.00 0.03 0.02 79 1019.5
20260901202025 65 225 4.0 6.0 0.00 0.03 0.02 79 1019.5
20260901201845 65 225 5.0 7.0 0.00 0.03 0.02 78 1019.6
20260901201702 65 225 4.0 7.0 0.00 0.03 0.02 78 1019.5
20260901201505 65 248 4.0 7.0 0.00 0.03 0.02 78 1019.5
20260901201310 65 225 4.0 8.0 0.00 0.03 0.02 78 1019.4
20260901201152 65 248 4.0 8.0 0.00 0.03 0.02 78 1019.5
20260901201130 65 292 4.0 8.0 0.00 0.03 0.02 78 1019.5
20260901200930 65 270 4.0 8.0 0.00 0.03 0.02 77 1019.5
20260901200750 65 248 4.0 8.0 0.00 0.03 0.02 77 1019.5
20260901200600 65 292 4.0 8.0 0.00 0.03 0.02 77 1019.5
20260901200405 65 225 4.0 8.0 0.00 0.03 0.02 76 1019.5
20260901200205 65 292 4.0 7.0 0.00 0.03 0.02 76 1019.4
20260901200005 65 270 4.0 6.0 0.00 0.03 0.02 76 1019.4
20260901195820 66 248 4.0 8.0 0.00 0.03 0.02 76 1019.4
20260901195635 66 270 5.0 8.0 0.00 0.03 0.02 75 1019.4
20260901195507 66 248 5.0 9.0 0.00 0.03 0.02 75 1019.4
20260901195440 66 270 5.0 9.0 0.00 0.03 0.02 75 1019.4
20260901195245 66 248 5.0 9.0 0.00 0.03 0.02 74 1019.4
20260901195055 66 225 6.0 9.0 0.00 0.03 0.02 74 1019.4
20260901194915 66 292 6.0 10.0 0.00 0.03 0.02 74 1019.4
20260901194740 66 292 6.0 10.0 0.00 0.03 0.02 73 1019.3
20260901194600 66 270 6.0 10.0 0.00 0.03 0.02 73 1019.3
20260901194405 66 248 5.0 8.0 0.00 0.03 0.02 73 1019.4
20260901194225 66 248 5.0 7.0 0.00 0.03 0.02 73 1019.4
20260901194035 66 225 5.0 7.0 0.00 0.03 0.02 73 1019.3
20260901193855 66 202 5.0 7.0 0.00 0.03 0.02 73 1019.3
20260901193821 67 248 5.0 8.0 0.00 0.03 0.02 72 1019.3
20260901193720 67 248 5.0 8.0 0.00 0.03 0.02 72 1019.2
20260901193542 67 225 5.0 8.0 0.00 0.03 0.02 72 1019.2
20260901193345 67 248 5.0 8.0 0.00 0.03 0.02 72 1019.2
20260901193150 67 292 5.0 8.0 0.00 0.03 0.02 72 1019.2
20260901193010 67 202 5.0 9.0 0.00 0.03 0.02 71 1019.2
20260901192815 67 248 5.0 9.0 0.00 0.03 0.02 71 1019.2
20260901192635 67 270 5.0 9.0 0.00 0.03 0.02 71 1019.2
20260901192445 67 270 5.0 8.0 0.00 0.03 0.02 71 1019.1
20260901192300 67 248 5.0 8.0 0.00 0.03 0.02 71 1019.2
20260901192228 67 248 6.0 8.0 0.00 0.03 0.02 70 1019.2
20260901192110 67 202 6.0 8.0 0.00 0.03 0.02 70 1019.1
20260901191930 67 248 6.0 8.0 0.00 0.03 0.02 70 1019.1
20260901191745 67 248 6.0 8.0 0.00 0.03 0.02 69 1019.1
20260901191544 67 248 6.0 7.0 0.00 0.03 0.02 70 1019.1
20260901191355 67 225 6.0 7.0 0.00 0.03 0.02 69 1019.2
20260901191205 68 248 6.0 7.0 0.00 0.03 0.02 69 1019.1
20260901191015 68 248 6.0 9.0 0.00 0.03 0.02 69 1019.1
20260901190815 68 202 5.0 9.0 0.00 0.05 0.02 69 1019.1
20260901190620 68 225 5.0 8.0 0.00 0.05 0.02 69 1019.0
20260901190548 68 270 5.0 8.0 0.00 0.05 0.02 69 1019.1
20260901190440 68 225 5.0 8.0 0.00 0.05 0.02 68 1019.0
20260901190245 68 270 5.0 8.0 0.00 0.11 0.02 68 1019.0
20260901190100 68 248 6.0 10.0 0.00 0.11 0.02 68 1019.1
20260901185910 68 248 5.0 10.0 0.00 0.11 0.02 68 1019.0
20260901185725 68 202 6.0 10.0 0.00 0.13 0.02 68 1019.0
20260901185525 68 248 6.0 9.0 0.00 0.13 0.02 68 1019.0
20260901185333 68 225 7.0 9.0 0.00 0.13 0.02 67 1019.0
20260901185153 69 270 7.0 11.0 0.00 0.13 0.02 66 1019.0
20260901185005 69 270 7.0 11.0 0.00 0.13 0.02 66 1019.0
20260901184919 69 270 7.0 11.0 0.00 0.13 0.02 66 1019.0
20260901184610 69 292 6.0 11.0 0.00 0.13 0.02 66 1019.1
20260901184422 69 202 6.0 11.0 0.00 0.13 0.02 64 1018.9
20260901184230 69 248 6.0 9.0 0.00 0.13 0.02 64 1019.0
20260901184048 69 292 6.0 9.0 0.00 0.13 0.02 64 1018.9
20260901183850 69 248 6.0 9.0 0.00 0.13 0.02 63 1018.9
20260901183659 69 248 6.0 11.0 0.00 0.13 0.02 63 1019.0
20260901183508 69 292 6.0 11.0 0.00 0.13 0.02 63 1018.9
20260901183329 69 248 6.0 11.0 0.00 0.13 0.02 62 1018.9
20260901183257 69 248 6.0 11.0 0.00 0.13 0.02 63 1019.0
20260901183150 69 225 6.0 7.0 0.00 0.13 0.02 63 1018.9
20260901183010 69 292 6.0 10.0 0.00 0.13 0.02 63 1018.8
20260901182820 69 248 6.0 10.0 0.00 0.13 0.02 63 1018.9
20260901182633 70 202 7.0 10.0 0.00 0.13 0.02 62 1018.8
20260901182433 70 292 6.0 11.0 0.00 0.13 0.02 62 1018.8
20260901182255 70 248 6.0 11.0 0.00 0.13 0.02 61 1018.9
20260901182118 70 225 6.0 11.0 0.00 0.13 0.02 61 1018.7
20260901181943 70 292 5.0 8.0 0.00 0.13 0.02 61 1018.7
20260901181750 70 202 5.0 8.0 0.00 0.13 0.02 61 1018.6
20260901181557 70 315 5.0 8.0 0.00 0.13 0.02 61 1018.6
20260901181522 70 202 5.0 7.0 0.00 0.13 0.02 61 1018.6
20260901181400 70 270 5.0 7.0 0.00 0.13 0.02 61 1018.5
20260901181210 70 225 5.0 6.0 0.00 0.13 0.02 61 1018.6
20260901181030 70 248 6.0 8.0 0.00 0.13 0.02 61 1018.5
20260901180831 70 248 5.0 8.0 0.00 0.13 0.02 60 1018.4
20260901180652 70 225 5.0 8.0 0.00 0.13 0.02 61 1018.4
20260901180515 70 248 5.0 12.0 0.00 0.13 0.02 60 1018.4
20260901180325 70 270 5.0 12.0 0.00 0.13 0.02 60 1018.4
20260901180125 70 270 6.0 12.0 0.00 0.13 0.02 60 1018.4
20260901175945 70 248 5.0 10.0 0.00 0.13 0.02 60 1018.3
20260901175842 70 270 5.0 10.0 0.00 0.13 0.02 60 1018.3
20260901175750 71 270 5.0 10.0 0.00 0.13 0.02 60 1018.3
20260901175605 71 270 5.0 8.0 0.00 0.13 0.02 60 1018.2
20260901175413 71 292 5.0 8.0 0.00 0.13 0.02 60 1018.2
20260901175233 71 225 5.0 7.0 0.00 0.13 0.02 60 1018.1
20260901175053 71 248 5.0 7.0 0.00 0.13 0.02 60 1018.2
20260901174901 71 315 5.0 8.0 0.00 0.13 0.02 60 1018.2
20260901174715 71 225 5.0 8.0 0.00 0.13 0.02 60 1018.2
20260901174538 71 292 5.0 8.0 0.00 0.13 0.02 60 1018.2
20260901174350 71 315 5.0 8.0 0.00 0.13 0.02 60 1018.2
20260901174200 71 202 5.0 10.0 0.00 0.13 0.02 60 1018.2
20260901174147 71 225 5.0 10.0 0.00 0.13 0.02 60 1018.2
20260901174007 71 292 5.0 10.0 0.00 0.13 0.02 60 1018.2
20260901173815 71 292 5.0 10.0 0.00 0.13 0.02 60 1018.2
20260901173630 71 270 5.0 9.0 0.00 0.13 0.02 60 1018.2
20260901173450 71 248 5.0 9.0 0.00 0.13 0.02 59 1018.2
20260901173304 71 225 4.0 9.0 0.00 0.13 0.02 59 1018.1
20260901173105 71 248 4.0 11.0 0.00 0.13 0.02 60 1018.2
20260901172905 71 248 4.0 11.0 0.00 0.13 0.02 59 1018.1
20260901172715 71 292 4.0 11.0 0.00 0.13 0.02 59 1018.0
20260901172520 71 270 3.0 6.0 0.00 0.13 0.02 60 1018.0
20260901172340 71 248 3.0 6.0 0.00 0.13 0.02 59 1018.0
20260901172155 71 248 3.0 6.0 0.00 0.13 0.02 59 1018.0
20260901172015 71 248 4.0 5.0 0.00 0.13 0.02 59 1018.0
20260901171829 71 270 4.0 5.0 0.00 0.13 0.02 59 1018.0
20260901171645 71 292 4.0 8.0 0.00 0.13 0.02 59 1017.9
20260901171450 71 292 4.0 8.0 0.00 0.13 0.02 59 1018.0
20260901171305 71 292 4.0 8.0 0.00 0.13 0.02 59 1018.0
20260901171110 71 202 4.0 5.0 0.00 0.13 0.02 59 1018.0
20260901170915 71 248 4.0 6.0 0.00 0.13 0.02 59 1017.9
20260901170725 71 248 4.0 6.0 0.00 0.13 0.02 59 1018.0
20260901170530 72 270 4.0 6.0 0.00 0.13 0.02 58 1018.0
20260901170349 72 248 4.0 6.0 0.00 0.13 0.02 58 1017.9
20260901170205 72 248 4.0 6.0 0.00 0.13 0.02 58 1017.9
20260901170010 72 270 4.0 7.0 0.00 0.13 0.02 58 1017.9
20260901165825 72 270 4.0 7.0 0.00 0.13 0.02 58 1017.8
20260901165640 72 292 4.0 7.0 0.00 0.13 0.02 58 1018.0
20260901165450 72 248 5.0 7.0 0.00 0.13 0.02 57 1017.9
20260901165306 72 292 5.0 7.0 0.00 0.13 0.02 57 1017.9
20260901165157 72 292 5.0 8.0 0.00 0.13 0.02 57 1017.9
20260901165106 72 270 5.0 8.0 0.00 0.13 0.02 57 1017.9
20260901164920 72 292 5.0 8.0 0.00 0.13 0.02 56 1017.9
20260901164730 73 248 5.0 8.0 0.00 0.13 0.02 56 1017.8
20260901164535 73 248 6.0 8.0 0.00 0.13 0.02 55 1017.9
20260901164355 73 248 6.0 8.0 0.00 0.13 0.02 56 1017.8
20260901164200 73 202 6.0 8.0 0.00 0.13 0.02 55 1017.8
20260901164000 73 225 6.0 10.0 0.00 0.13 0.02 55 1017.9
20260901163814 73 248 6.0 10.0 0.00 0.13 0.02 55 1017.9
20260901163614 73 270 7.0 11.0 0.00 0.13 0.02 55 1017.9
20260901163427 73 270 6.0 11.0 0.00 0.13 0.02 54 1018.0
20260901163235 73 270 6.0 11.0 0.00 0.13 0.02 54 1018.0
20260901163053 73 292 6.0 11.0 0.00 0.13 0.02 55 1017.9
20260901162858 73 315 6.0 11.0 0.00 0.13 0.02 54 1017.8
20260901162715 73 270 6.0 11.0 0.00 0.13 0.02 54 1017.9
20260901162530 73 225 6.0 8.0 0.00 0.13 0.02 54 1017.9
20260901162340 73 270 6.0 9.0 0.00 0.13 0.02 54 1018.0
20260901162155 73 292 6.0 9.0 0.00 0.13 0.02 54 1018.0
20260901162000 73 248 6.0 10.0 0.00 0.13 0.02 53 1017.9
20260901161815 73 225 6.0 10.0 0.00 0.13 0.02 54 1017.8
20260901161753 73 225 6.0 10.0 0.00 0.13 0.02 54 1017.9
20260901161625 73 270 6.0 10.0 0.00 0.13 0.02 53 1017.8
20260901161430 73 315 6.0 10.0 0.00 0.13 0.02 53 1017.7
20260901161240 73 225 6.0 10.0 0.00 0.13 0.02 54 1017.8
20260901161040 74 248 6.0 10.0 0.00 0.13 0.02 53 1017.9
20260901160845 74 248 6.0 10.0 0.00 0.13 0.02 54 1017.8
20260901160701 74 270 6.0 11.0 0.00 0.13 0.02 53 1017.8
20260901160510 74 225 6.0 11.0 0.00 0.13 0.02 53 1017.8
20260901160310 75 270 6.0 10.0 0.00 0.13 0.02 52 1017.8
20260901160137 75 270 6.0 12.0 0.00 0.13 0.02 52 1017.7
20260901160110 75 292 6.0 12.0 0.00 0.13 0.02 52 1017.8
20260901155930 75 248 6.0 12.0 0.00 0.13 0.02 52 1017.7
20260901155735 75 248 7.0 12.0 0.00 0.13 0.02 51 1017.7
20260901155540 75 270 7.0 10.0 0.00 0.13 0.02 51 1017.7
20260901155350 75 248 7.0 10.0 0.00 0.13 0.02 50 1017.7
20260901155200 75 292 8.0 11.0 0.00 0.13 0.02 50 1017.7
20260901155022 75 248 8.0 11.0 0.00 0.13 0.02 50 1017.8
20260901154830 75 270 8.0 11.0 0.00 0.13 0.02 49 1017.8
20260901154650 75 248 8.0 11.0 0.00 0.13 0.02 50 1017.7
20260901154500 75 270 8.0 13.0 0.00 0.13 0.02 50 1017.7
20260901154450 75 248 8.0 13.0 0.00 0.13 0.02 50 1017.7
20260901154310 75 248 8.0 13.0 0.00 0.13 0.02 50 1017.8
20260901154120 76 270 8.0 13.0 0.00 0.13 0.02 50 1017.7
20260901153940 76 248 8.0 12.0 0.00 0.13 0.02 49 1017.7
20260901153800 76 292 8.0 12.0 0.00 0.13 0.02 49 1017.7
20260901153625 76 270 8.0 13.0 0.00 0.13 0.02 49 1017.7
20260901153442 76 248 7.0 13.0 0.00 0.13 0.02 50 1017.6
20260901153250 76 292 7.0 13.0 0.00 0.13 0.02 50 1017.7
20260901153116 76 292 6.0 9.0 0.00 0.13 0.02 49 1017.6
20260901152919 76 270 6.0 10.0 0.00 0.13 0.02 51 1017.5
20260901152712 76 248 6.0 10.0 0.00 0.13 0.02 50 1017.6
20260901152617 75 248 6.0 11.0 0.00 0.13 0.02 51 1017.6
20260901152523 75 202 6.0 11.0 0.00 0.13 0.02 51 1017.6
20260901152340 75 292 6.0 11.0 0.00 0.13 0.02 51 1017.7
20260901152153 75 292 8.0 11.0 0.00 0.13 0.02 51 1017.6
20260901152015 75 292 8.0 11.0 0.00 0.13 0.02 52 1017.6
20260901151824 75 248 7.0 11.0 0.00 0.13 0.02 52 1017.7
20260901151630 75 270 7.0 13.0 0.00 0.13 0.02 52 1017.7
20260901151450 75 180 6.0 15.0 0.00 0.13 0.02 52 1017.6
20260901151255 76 248 7.0 15.0 0.00 0.13 0.02 52 1017.6
20260901151105 76 270 6.0 13.0 0.00 0.13 0.02 52 1017.7
20260901151001 76 270 6.0 9.0 0.00 0.13 0.02 51 1017.6
20260901150905 75 248 6.0 9.0 0.00 0.13 0.02 51 1017.7
20260901150715 75 292 6.0 10.0 0.00 0.13 0.02 51 1017.7
20260901150530 75 225 7.0 10.0 0.00 0.13 0.02 51 1017.6
20260901150345 75 270 7.0 10.0 0.00 0.13 0.02 51 1017.6
20260901150145 75 315 7.0 10.0 0.00 0.13 0.02 52 1017.6
20260901145945 75 202 7.0 11.0 0.00 0.13 0.02 52 1017.6
20260901145758 75 248 6.0 11.0 0.00 0.13 0.02 52 1017.6
20260901145610 75 270 7.0 11.0 0.00 0.13 0.02 53 1017.7
20260901145430 75 225 7.0 14.0 0.00 0.13 0.02 53 1017.7
20260901145255 75 248 7.0 14.0 0.00 0.13 0.02 53 1017.7
20260901145157 75 270 7.0 14.0 0.00 0.13 0.02 54 1017.6
20260901145057 75 225 7.0 14.0 0.00 0.13 0.02 53 1017.6
20260901144910 75 202 6.0 11.0 0.00 0.13 0.02 53 1017.5
20260901144725 74 270 6.0 10.0 0.00 0.13 0.02 54 1017.5
20260901144545 74 225 5.0 13.0 0.00 0.13 0.02 54 1017.6
20260901144352 74 248 4.0 10.0 0.00 0.13 0.02 53 1017.5
20260901144200 74 292 4.0 9.0 0.00 0.13 0.02 52 1017.5
20260901144005 73 22 4.0 6.0 0.00 0.13 0.02 54 1017.5
20260901143820 73 292 5.0 7.0 0.00 0.13 0.02 56 1017.6
20260901143640 73 292 5.0 8.0 0.00 0.13 0.02 57 1017.6
20260901143455 73 270 5.0 8.0 0.00 0.13 0.02 57 1017.6
20260901143425 73 292 5.0 8.0 0.00 0.13 0.02 57 1017.6
20260901143318 73 248 6.0 8.0 0.00 0.13 0.02 58 1017.6
20260901143134 73 225 6.0 8.0 0.00 0.13 0.02 57 1017.5
20260901142955 73 248 5.0 10.0 0.00 0.13 0.02 57 1017.6
20260901142800 73 225 5.0 10.0 0.00 0.13 0.02 57 1017.6
20260901142605 73 292 4.0 7.0 0.00 0.13 0.02 58 1017.6
20260901142425 73 225 3.0 5.0 0.00 0.13 0.02 58 1017.6
20260901142225 73 292 3.0 5.0 0.00 0.13 0.02 57 1017.6
20260901142031 73 225 4.0 5.0 0.00 0.13 0.02 57 1017.6
20260901141912 73 248 4.0 5.0 0.00 0.13 0.02 57 1017.6
20260901141835 73 158 4.0 5.0 0.00 0.13 0.02 57 1017.6
20260901141645 73 225 4.0 5.0 0.00 0.13 0.02 58 1017.7
20260901141450 73 225 5.0 5.0 0.00 0.13 0.02 58 1017.7
20260901141250 73 248 5.0 7.0 0.00 0.13 0.02 58 1017.8
20260901141100 73 292 6.0 10.0 0.00 0.13 0.02 58 1017.8
20260901140920 73 225 6.0 10.0 0.00 0.13 0.02 58 1017.7
20260901140730 74 248 6.0 10.0 0.00 0.13 0.02 58 1017.8
20260901140553 74 248 6.0 10.0 0.00 0.13 0.02 58 1017.8
20260901140410 74 248 6.0 10.0 0.00 0.13 0.02 57 1017.8
20260901140230 74 202 6.0 9.0 0.00 0.13 0.02 57 1017.8
20260901140031 74 225 6.0 9.0 0.00 0.13 0.02 56 1017.7
20260901135842 74 225 6.0 9.0 0.00 0.13 0.02 55 1017.8
20260901135700 74 225 6.0 9.0 0.00 0.13 0.02 54 1017.9
20260901135510 73 225 6.0 9.0 0.00 0.13 0.02 54 1017.8
20260901135330 73 248 6.0 9.0 0.00 0.13 0.02 54 1017.8
20260901135132 73 248 6.0 9.0 0.00 0.13 0.02 55 1017.8
20260901134940 73 248 6.0 8.0 0.00 0.13 0.02 56 1017.8
20260901134745 73 225 6.0 8.0 0.00 0.13 0.02 57 1017.9
20260901134600 73 202 7.0 11.0 0.00 0.13 0.02 56 1017.9
20260901134415 73 270 7.0 11.0 0.00 0.13 0.02 55 1017.8
20260901134320 73 248 6.0 11.0 0.00 0.13 0.02 55 1017.8
20260901134222 73 248 6.0 11.0 0.00 0.13 0.02 55 1017.8
20260901134040 74 202 6.0 10.0 0.00 0.13 0.02 56 1017.8
20260901133900 74 270 7.0 10.0 0.00 0.13 0.02 55 1017.8
20260901133715 74 202 7.0 9.0 0.00 0.13 0.02 56 1017.8
20260901133521 74 292 6.0 9.0 0.00 0.13 0.02 55 1017.8
20260901133340 74 248 7.0 13.0 0.00 0.13 0.02 54 1017.8
20260901133152 74 248 7.0 13.0 0.00 0.13 0.02 54 1017.8
20260901133010 74 292 7.0 13.0 0.00 0.13 0.02 54 1017.9
20260901132832 74 225 7.0 11.0 0.00 0.13 0.02 53 1017.8
20260901132645 74 292 7.0 9.0 0.00 0.13 0.02 53 1017.9
20260901132608 74 270 7.0 11.0 0.00 0.13 0.02 53 1017.8
20260901132452 75 270 7.0 11.0 0.00 0.13 0.02 54 1017.8
20260901132308 75 248 7.0 11.0 0.00 0.13 0.02 53 1017.9
20260901132130 75 292 7.0 11.0 0.00 0.13 0.02 52 1017.9
20260901131935 75 248 7.0 11.0 0.00 0.13 0.02 52 1017.8
20260901131740 74 248 7.0 11.0 0.00 0.13 0.02 53 1017.8
20260901131555 74 158 7.0 12.0 0.00 0.13 0.02 53 1017.9
20260901131405 74 225 7.0 12.0 0.00 0.13 0.02 53 1017.8
20260901131220 74 225 7.0 12.0 0.00 0.13 0.02 53 1018.0
20260901131040 74 270 7.0 11.0 0.00 0.13 0.02 53 1017.9
20260901130900 74 292 7.0 11.0 0.00 0.13 0.02 54 1017.9
20260901130802 74 202 7.0 11.0 0.00 0.13 0.02 53 1017.9
20260901130704 74 292 7.0 12.0 0.00 0.13 0.02 53 1017.9
20260901130515 74 292 8.0 12.0 0.00 0.13 0.02 54 1017.9
20260901130320 74 248 8.0 12.0 0.00 0.13 0.02 53 1018.0
20260901130133 73 248 7.0 12.0 0.00 0.13 0.02 54 1018.0
20260901125935 73 315 7.0 12.0 0.00 0.13 0.02 55 1018.0
20260901125754 73 248 7.0 12.0 0.00 0.13 0.02 55 1017.9
20260901125617 73 225 6.0 14.0 0.00 0.13 0.02 55 1018.0
20260901125432 72 225 6.0 14.0 0.00 0.13 0.02 57 1018.0
20260901125245 72 202 6.0 10.0 0.00 0.13 0.02 57 1017.9
20260901125059 72 248 6.0 10.0 0.00 0.13 0.02 58 1017.9
20260901124937 72 270 6.0 13.0 0.00 0.13 0.02 58 1017.9
20260901124905 72 248 6.0 13.0 0.00 0.13 0.02 58 1017.8
20260901124713 72 248 6.0 13.0 0.00 0.13 0.02 59 1017.9
20260901124530 72 225 6.0 13.0 0.00 0.13 0.02 58 1017.9
20260901124340 72 248 6.0 11.0 0.00 0.13 0.02 59 1018.0
20260901124140 72 248 6.0 11.0 0.00 0.13 0.02 59 1018.0
20260901123945 72 292 6.0 10.0 0.00 0.13 0.02 60 1018.0
20260901123745 72 292 5.0 10.0 0.00 0.13 0.02 58 1018.0
20260901123605 72 270 5.0 9.0 0.00 0.13 0.02 59 1017.9
20260901123410 72 270 5.0 9.0 0.00 0.13 0.02 60 1018.0
20260901123230 72 225 5.0 9.0 0.00 0.13 0.02 59 1018.0
20260901123148 72 225 5.0 6.0 0.00 0.13 0.02 60 1018.1
20260901123032 72 225 5.0 8.0 0.00 0.13 0.02 58 1018.1
20260901122845 72 292 6.0 8.0 0.00 0.13 0.02 60 1018.0
20260901122710 72 248 6.0 10.0 0.00 0.13 0.02 60 1018.1
20260901122520 72 248 6.0 10.0 0.00 0.13 0.02 61 1018.1
20260901122330 73 270 6.0 10.0 0.00 0.13 0.02 60 1018.0
20260901122145 73 270 6.0 10.0 0.00 0.13 0.02 60 1018.1
20260901121954 73 248 7.0 10.0 0.00 0.13 0.02 59 1018.1
20260901121800 73 270 7.0 10.0 0.00 0.13 0.02 59 1018.1
20260901121617 72 315 6.0 10.0 0.00 0.13 0.02 58 1018.1
20260901121430 72 292 6.0 11.0 0.00 0.13 0.02 57 1018.0
20260901121339 72 248 6.0 11.0 0.00 0.13 0.02 57 1018.0
20260901121238 72 315 6.0 11.0 0.00 0.13 0.02 58 1018.1
20260901121035 72 248 6.0 10.0 0.00 0.13 0.02 60 1018.0
20260901120835 72 315 5.0 8.0 0.00 0.13 0.02 60 1018.1
20260901120650 72 248 6.0 10.0 0.00 0.13 0.02 61 1018.0
20260901120510 71 270 6.0 10.0 0.00 0.13 0.02 60 1018.1
20260901120310 71 225 6.0 10.0 0.00 0.13 0.02 61 1018.2
20260901120123 71 225 5.0 8.0 0.00 0.13 0.02 61 1018.1
20260901115935 71 248 5.0 10.0 0.00 0.13 0.02 62 1018.2
20260901115740 71 292 5.0 10.0 0.00 0.13 0.02 63 1018.1
20260901115647 70 225 5.0 10.0 0.00 0.13 0.02 64 1018.2
20260901115548 70 270 6.0 10.0 0.00 0.13 0.02 63 1018.2
20260901115409 70 292 6.0 9.0 0.00 0.13 0.02 63 1018.2
20260901115220 70 270 6.0 9.0 0.00 0.13 0.02 64 1018.1
20260901115039 70 292 6.0 9.0 0.00 0.13 0.02 65 1018.2
20260901114840 70 292 6.0 10.0 0.00 0.13 0.02 65 1018.2
20260901114640 70 248 7.0 16.0 0.00 0.13 0.02 65 1018.3
20260901114502 70 292 6.0 16.0 0.00 0.13 0.02 65 1018.2
20260901114321 70 248 6.0 16.0 0.00 0.13 0.02 65 1018.3
20260901114143 70 225 6.0 9.0 0.00 0.13 0.02 65 1018.3
20260901114000 70 270 6.0 10.0 0.00 0.13 0.02 66 1018.2
20260901113922 70 248 6.0 10.0 0.00 0.13 0.02 65 1018.3
20260901113804 71 292 6.0 10.0 0.00 0.13 0.02 65 1018.1
20260901113621 71 270 6.0 10.0 0.00 0.13 0.02 66 1018.1
20260901113445 71 248 6.0 10.0 0.00 0.13 0.02 65 1018.1
20260901113255 70 248 6.0 10.0 0.00 0.13 0.02 65 1018.2